Weather History for Juanda, Indonesia

Change the Weather History Date:

Wednesday, December 12, 2012

  Actual Average Record
Temperature  
Mean Temperature 84 °F -  
Max Temperature 91 °F - - ()
Min Temperature 77 °F - - ()
Cooling Degree Days 19    
Growing Degree Days 34 (Base 50)    
Moisture  
Dew Point 73 °F    
Average Humidity 79    
Maximum Humidity 89    
Minimum Humidity 52    
Precipitation  
Precipitation 0.00 in - - ()
Sea Level Pressure  
Sea Level Pressure 29.79 in    
Wind  
Wind Speed 4 mph ()    
Max Wind Speed 15 mph    
Max Gust Speed 26 mph    
Visibility 5.1 miles    
Events Rain , Thunderstorm    
T = Trace of Precipitation, MM = Missing Value Source: Averaged Metar Reports

Daily Weather History Graph

Daily Weather History Graph

Search for Another Location

Airport:

Trip Planner

Search our weather history database for the weather conditions in past years. The results will help you decide how hot, cold, wet, or windy it might be!

Date:

Astronomy

Dec. 12, 2012 Rise Set
Actual Time 5:06 AM WIT 5:39 PM WIT
Civil Twilight 4:43 AM WIT 6:01 PM WIT
Nautical Twilight 4:16 AM WIT 6:28 PM WIT
Astronomical Twilight 3:49 AM WIT 6:55 PM WIT
Moon 3:42 AM WIT (12/12) 4:35 PM WIT (12/12)
Length of Visible Light 13h 18m
Length of Day
12h 32m
Waning Crescent, 2% of the Moon is Illuminated
Dec 12
Waning Crescent
Dec 13
New
Dec 20
First Quarter
Dec 28
Full
Jan 5
Last Quarter

Hourly Weather History & Observations

Time (WIT) Temp. Heat Index Dew Point Humidity Pressure Visibility Wind Dir Wind Speed Gust Speed Precip Events Conditions
1:30 AM 78.8 °F - 75.2 °F 89% 29.80 in 3.1 mi South 3.5 mph - N/A   Haze
3:00 AM 78.8 °F - 75.2 °F 89% 29.77 in 2.5 mi Calm Calm - N/A Thunderstorm Thunderstorm
3:30 AM 78.8 °F - 75.2 °F 89% 29.77 in 2.2 mi Calm Calm - N/A Thunderstorm Thunderstorm
4:00 AM 78.8 °F - 75.2 °F 89% 29.77 in 2.2 mi East 10.4 mph - N/A Thunderstorm Thunderstorm
4:30 AM 77.0 °F - 73.4 °F 89% 29.77 in 3.7 mi East 4.6 mph - N/A   Partly Cloudy
5:00 AM 78.8 °F - 73.4 °F 83% 29.80 in 3.7 mi Calm Calm - N/A   Partly Cloudy
6:00 AM 78.8 °F - 73.4 °F 83% 29.80 in 5.0 mi NNW 6.9 mph - N/A   Scattered Clouds
6:30 AM 78.8 °F - 73.4 °F 83% 29.83 in 5.0 mi WNW 4.6 mph - N/A   Scattered Clouds
7:00 AM 80.6 °F 85.4 °F 73.4 °F 79% 29.83 in 5.0 mi Variable 2.3 mph - N/A   Scattered Clouds
7:30 AM 80.6 °F 85.4 °F 73.4 °F 79% 29.83 in 5.0 mi WNW 4.6 mph - N/A   Scattered Clouds
8:00 AM 80.6 °F 84.6 °F 71.6 °F 74% 29.83 in 5.6 mi NW 5.8 mph - N/A   Scattered Clouds
9:00 AM 82.4 °F 88.2 °F 73.4 °F 74% 29.83 in 6.2 mi North 5.8 mph - N/A   Scattered Clouds
11:00 AM 87.8 °F 93.8 °F 71.6 °F 58% 29.80 in 6.2 mi NE 6.9 mph - N/A   Partly Cloudy
12:00 PM 89.6 °F 96.2 °F 71.6 °F 55% 29.80 in 6.2 mi NE 11.5 mph - N/A   Partly Cloudy
12:30 PM 89.6 °F 96.2 °F 71.6 °F 55% 29.77 in 6.2 mi NE 10.4 mph - N/A   Partly Cloudy
1:00 PM 91.4 °F 98.4 °F 71.6 °F 52% 29.77 in 6.2 mi NE 10.4 mph - N/A   Partly Cloudy
1:30 PM 87.8 °F 93.8 °F 71.6 °F 58% 29.74 in 6.2 mi ENE 11.5 mph - N/A   Scattered Clouds
2:30 PM 84.2 °F 92.3 °F 75.2 °F 74% 29.74 in 5.0 mi NW 10.4 mph - N/A Thunderstorm Thunderstorm
3:30 PM 82.4 °F 89.5 °F 75.2 °F 79% 29.74 in 6.2 mi SE 8.1 mph - N/A Thunderstorm Thunderstorm
4:00 PM 80.6 °F 85.4 °F 73.4 °F 79% 29.74 in 1.9 mi East 15.0 mph 26.5 mph N/A Rain , Thunderstorm Thunderstorms and Rain
4:30 PM 78.8 °F - 71.6 °F 78% 29.74 in 5.0 mi NNE 10.4 mph - N/A Rain , Thunderstorm Thunderstorms and Rain
5:30 PM 78.8 °F - 73.4 °F 83% 29.77 in 5.0 mi SW 4.6 mph - N/A Rain , Thunderstorm Thunderstorms and Rain
6:00 PM 77.0 °F - 73.4 °F 89% 29.77 in 6.2 mi SSW 5.8 mph - N/A   Scattered Clouds
6:30 PM 77.0 °F - 73.4 °F 89% 29.77 in 6.2 mi South 4.6 mph - N/A   Scattered Clouds
7:00 PM 78.8 °F - 73.4 °F 83% 29.77 in 6.2 mi SW 3.5 mph - N/A   Scattered Clouds
8:00 PM 78.8 °F - 73.4 °F 83% 29.80 in 6.2 mi SSE 2.3 mph - N/A   Scattered Clouds
8:30 PM 78.8 °F - 73.4 °F 83% 29.83 in 6.2 mi South 3.5 mph - N/A   Partly Cloudy
9:00 PM 78.8 °F - 73.4 °F 83% 29.83 in 6.2 mi Calm Calm - N/A   Scattered Clouds
9:30 PM 78.8 °F - 73.4 °F 83% 29.86 in 6.2 mi Calm Calm - N/A   Scattered Clouds
10:30 PM 78.8 °F - 75.2 °F 89% 29.86 in 6.2 mi Calm Calm - N/A   Partly Cloudy
11:00 PM 78.8 °F - 73.4 °F 83% 29.83 in 6.2 mi Calm Calm - N/A   Partly Cloudy